Tracking 31027 objects as of 19-Jul-2025
HD Live streaming from Space Station
objects crossing your sky now

COSMOS 1375 DEB

Track COSMOS 1375 DEB now!
10-day predictions


NORAD ID: 16206
Int'l Code: 1982-055H
Perigee: 974.2 km
Apogee: 1,011.4 km
Inclination: 65.8 °
Period: 104.8 minutes
Semi major axis: 7363 km
RCS: 0.4888 m2 (medium)
Launch date: June 6, 1982
Source: Commonwealth of Independent States (former USSR) (CIS)
Launch site: PLESETSK MISSILE AND SPACE COMPLEX (PKMTR)

Note: This is SATELLITE DEBRIS
Your satellite tracking list
FLOCK 4X 28
Track 1 satellite(s)




NASA's NSSDC Master Catalog

Two Line Element Set (TLE):
1 16206U 82055H   25199.58031536  .00000016  00000-0  10273-3 0  9995
2 16206  65.8360 305.3299 0025239 225.1640 146.8462 13.73887210160847
Source of the keplerian elements: AFSPC